Location: Unspecified
(51.0950°N, 12.9690°E)
Time: 00:21:20
(UTC+00:00)

EO-79 - Pass Details

Date: 28 April 2024
Orbit: 562 x 575 km, 98.0° (Epoch: 28 May)

Event Time Altitude Azimuth Distance (km) Brightness Sun altitude
Rises 02:52:11 0° 10° (N) 2,802 ? -8.2°
Reaches altitude 10° 02:54:22 10° 6° (N) 1,900 ? -7.9°
Maximum altitude 02:58:23 53° 290° (WNW) 716 ? -7.4°
Drops below altitude 10° 03:02:22 10° 213° (SSW) 1,887 ? -6.9°
Enters shadow 03:03:12 - 211° (SSW) 2,230 ? -6.8°
